Volver al catálogo

STARLINK-1307

ActivoComunicacionesVLEO
NORAD 45397·PAYLOAD·🇺🇸 United States

Lanzado Mar 18, 2020 desde Cape Canaveral Space Force Station

Loading…

Próximos Pases (próximas 24 horas)

TLE

ActualizadoSource: CelesTrak SupGP

Época: Sep 15, 2026, 01:52 UTC

1 45397C 20019AP  26258.07826389  .00053604  00000+0  56478-3 0  2584
2 45397  53.0484 292.4736 0002923  48.9891 127.4927 15.63584446    11

Sigue STARLINK-1307 en tiempo real con AllMySat

Download on the App Store